Orbital Elements at Epoch 2459200.5 (2020-Dec-17.0) TDB
Reference: JPL 19 (heliocentric ecliptic J2000)
Element | Value | Uncertainty (1-sigma) | Units |
e | .07449385061854516 | 3.6232e-08 | |
a | 2.571260143393745 | 1.4095e-08 | au |
q | 2.379717074370352 | 9.6109e-08 | au |
i | 6.71124953835431 | 3.7419e-06 | deg |
node | 91.72024294399552 | 4.5064e-05 | deg |
peri | 206.061847641117 | 5.6891e-05 | deg |
M | 231.1918153748469 | 3.4449e-05 | deg |
tp | 2459739.338244459056 (2022-Jun-08.83824446) | 0.00014373 | TDB |
period | 1505.973929915786 4.12 | 1.2383e-05 3.39e-08 | d yr |
n | .2390479628157515 | 1.9656e-09 | deg/d |
Q | 2.762803212417137 | 1.5145e-08 | au |
|
| | Orbit Determination Parameters
Additional Information
|